Content
SEND FEEDBACK

Daily
Averages
Monthly
Summary
United States of America

YIGO, GUAM


Home > North America > United States > Guam
Elevation: 530 feet     Latitude: 13 32N     Longitude: 144 53E

WEATHER
 
SELECT A DAY
Number of Records: 213,057;   Date Range: 1/1/95 - 9/29/14
 
SHARE

PRINT THIS DATA

[ ← Previous Day ]
WEATHER ALMANAC - JUNE 18, 2014
[ Next Day → ]
[ °C ]   °F
Weather ElementAverageHighLow
Temperature84.8 °F88 °F (10:54 am)79 °F (4:54 am)
Dewpoint77.1 °F79 °F (6:54 am)75.2 °F (10:01 am)
Humidity78 %94 % (1:54 am)66 % (10:01 am)
Barometer29.82 in29.88 in (8:27 am)29.75 in (3:54 pm)
Wind Speed4.9 mph8.1 mph (10:54 am)
Weather ElementAverage
Visibility10 mi
Wind DirectionENE (77.3 °)

Weather ElementTotal
Precipitation---
Cooling Degree Days18.5 (Base 65)
Growing Degree Days33.5 (Base 50)
Averaged from 30 records on June 18, 2014
WEATHER CONDITIONS BREAKOUT
WIND DIRECTION BREAKOUT
WEATHER BY HOUR - JUNE 18, 2014
[ °C ]   °F
Local TimeTemperatureDewpointHumidityBarometerVisibilityWind DirectionWind SpeedGust SpeedPrecipitationEventsConditions
1:54 AM80.1 °F78.1 °F94 %29.83 in10.0 miCalmClear
2:54 AM80.1 °F78.1 °F94 %29.83 in10.0 miCalmClear
3:54 AM80.1 °F77.0 °F90 %29.82 in10.0 miCalmClear
4:54 AM79.0 °F77.0 °F94 %29.83 in10.0 miCalmClear
5:54 AM80.1 °F78.1 °F94 %29.83 in10.0 miENE (70°)3.5 mphClear
6:54 AM82.9 °F79.0 °F88 %29.84 in10.0 miNNE (30°)3.5 mphClear
7:54 AM84.9 °F79.0 °F82 %29.85 in10.0 miNNE (30°)3.5 mphClear
8:27 AM84.2 °F78.8 °F84 %29.88 in10.0 miESE (110°)4.6 mphMostly Cloudy
8:54 AM86.0 °F78.1 °F77 %29.86 in10.0 miEast (100°)5.8 mphMostly Cloudy
9:54 AM86.0 °F78.1 °F77 %29.86 in10.0 miVariable5.8 mph0.00 inMostly Cloudy
10:01 AM87.8 °F75.2 °F66 %29.87 in10.0 miEast (80°)6.9 mphOvercast
10:10 AM87.8 °F77.0 °F70 %29.87 in10.0 miVariable6.9 mphMostly Cloudy
10:54 AM88.0 °F77.0 °F70 %29.83 in10.0 miEast (100°)8.1 mphMostly Cloudy
11:54 AM87.1 °F77.0 °F72 %29.81 in10.0 miVariable5.8 mphMostly Cloudy
12:01 PM87.8 °F78.8 °F75 %29.83 in10.0 miWNW (300°)3.5 mphMostly Cloudy
12:54 PM88.0 °F77.0 °F70 %29.80 in10.0 miSSE (150°)6.9 mphScattered Clouds
1:27 PM86.0 °F78.8 °F79 %29.81 in10.0 miWest (280°)4.6 mphOvercast
1:54 PM87.1 °F75.9 °F69 %29.77 in10.0 miESE (110°)6.9 mphMostly Cloudy
2:13 PM87.8 °F75.2 °F66 %29.79 in10.0 miEast (100°)6.9 mphOvercast
2:54 PM87.1 °F75.9 °F69 %29.76 in10.0 miEast (90°)6.9 mphOvercast
3:54 PM87.1 °F75.9 °F69 %29.75 in10.0 miEast (100°)6.9 mphMostly Cloudy
4:13 PM87.8 °F75.2 °F66 %29.77 in10.0 miEast (100°)6.9 mphMostly Cloudy
4:54 PM86.0 °F75.9 °F72 %29.75 in10.0 miEast (100°)5.8 mphPartly Cloudy
5:54 PM84.9 °F75.9 °F74 %29.76 in10.0 miEast (100°)5.8 mphPartly Cloudy
6:54 PM84.0 °F77.0 °F79 %29.78 in10.0 miEast (90°)5.8 mphPartly Cloudy
7:54 PM84.0 °F77.0 °F79 %29.80 in10.0 miENE (60°)3.5 mphClear
8:54 PM82.4 °F77.0 °F84 %29.81 in10.0 miNE (50°)5.8 mphPartly Cloudy
9:54 PM84.2 °F77.0 °F79 %29.82 in10.0 miNE (50°)4.6 mphPartly Cloudy
10:54 PM82.4 °F75.2 °F79 %29.83 in10.0 miENE (60°)4.6 mphScattered Clouds
11:54 PM84.0 °F77.0 °F79 %29.81 in10.0 miENE (60°)5.8 mphClear
Hourly data recorded from PGUM, located miles away from Yigo, Guam







STORIES FROM OUR PARTNERS